This is the latest recevied weather packets stored in our database for station/object EA2ESA-13. If no packets are shown the sender has not sent any weather packets the latest 10 day(s).
| Time | Temp. | Humidity | Pressure | Rain* | Wind** | Luminosity | Snow |
|---|---|---|---|---|---|---|---|
| 1778177301 | 21.11° C | 62% | 1013.9 hPa | 0 mm | 0 m/s | - | - |
| 1778176700 | 21.11° C | 62% | 1013.7 hPa | 0 mm | 0 m/s | - | - |
| 1778176099 | 21.11° C | 62% | 1013.8 hPa | 0 mm | 0 m/s | - | - |
| 1778175499 | 21.67° C | 61% | 1013.8 hPa | 0 mm | 0 m/s | - | - |
| 1778174897 | 21.67° C | 61% | 1013.9 hPa | 0 mm | 0 m/s | - | - |
| 1778174297 | 21.67° C | 61% | 1013.9 hPa | 0 mm | 0 m/s | - | - |
| 1778173696 | 21.67° C | 59% | 1014 hPa | 0 mm | 0 m/s | - | - |
| 1778173096 | 21.67° C | 57% | 1014 hPa | 0 mm | 0 m/s | - | - |
| 1778172495 | 21.67° C | 58% | 1014 hPa | 0 mm | 0 m/s | - | - |
| 1778171894 | 21.67° C | 58% | 1013.9 hPa | 0 mm | 0 m/s | - | - |
| 1778171293 | 22.22° C | 61% | 1013.9 hPa | 0 mm | 0 m/s | - | - |
| 1778170692 | 22.22° C | 62% | 1013.9 hPa | 0 mm | 0 m/s | - | - |
| 1778170090 | 22.22° C | 62% | 1013.9 hPa | 0 mm | 0 m/s | - | - |
| 1778169490 | 22.22° C | 63% | 1014 hPa | 0 mm | 0 m/s | - | - |
| 1778168889 | 22.22° C | 61% | 1014.2 hPa | 0 mm | 0 m/s | - | - |
| 1778168287 | 22.22° C | 58% | 1014.3 hPa | 0 mm | 0 m/s | - | - |
| 1778167686 | 22.78° C | 60% | 1014.3 hPa | 0 mm | 0 m/s | - | - |
| 1778167085 | 23.33° C | 61% | 1014.2 hPa | 0 mm | 0 m/s | - | - |
| 1778166484 | 23.33° C | 61% | 1014 hPa | 0 mm | 0 m/s | - | - |
| 1778165883 | 23.33° C | 60% | 1014 hPa | 0 mm | 0 m/s | - | - |
| 1778165282 | 23.33° C | 58% | 1014.2 hPa | 0 mm | 0 m/s | - | - |
| 1778164681 | 23.33° C | 57% | 1014.3 hPa | 0 mm | 0 m/s | - | - |
| 1778164080 | 23.33° C | 57% | 1014.1 hPa | 0 mm | 0 m/s | - | - |
| 1778163480 | 22.78° C | 58% | 1014.3 hPa | 0 mm | 0 m/s | - | - |
| 1778162879 | 22.78° C | 58% | 1014.4 hPa | 0 mm | 0 m/s | - | - |
* Rain latest hour (hover to see other rain measurements)
** Current wind speed in m/s (hover to see current wind gust speed)